Regional Weather Roundup
Issued by NWS

Home | Current Version | Previous Version | Graphics & Text | Print | Product List | Glossary Off
Versions: 1 2 3 4 5 6 7 8 9 10 11 12 13 14 15 16 17 18 19 20 21 22 23 24 25 26 27 28 29 30 31 32 33 34 35 36 37 38 39 40 41 42 43 44 45 46 47 48 49 50

000
ASUS43 KMPX 020310
RWRMN
WEATHER ROUNDUP FOR MINNESOTA
NATIONAL WEATHER SERVICE TWIN CITIES/CHANHASSEN MN
1000 PM CDT SUN MAY 01 2016


NOTE: "FAIR" INDICATES FEW OR NO CLOUDS BELOW 12,000 FEET WITH NO
SIGNIFICANT WEATHER AND/OR OBSTRUCTIONS TO VISIBILITY. N/A MEANS
CURRENT SKY AND/OR WEATHER CONDITIONS ARE NOT AVAILABLE.

MNZ060>063-068>070-020400-
   Twin Cities Metro

CITY           SKY/WX    TMP DP  RH WIND       PRES   REMARKS
TWIN CITIES    PTCLDY    55  33  43 N8        30.10S
ST PAUL        CLEAR     53  34  48 N9        30.11S
CRYSTAL        CLEAR     55  35  47 N7        30.11R
BLAINE         CLEAR     52  37  58 N8        30.12S
EDEN PRAIRIE   CLEAR     55  34  45 N5        30.10S
SOUTH ST PAUL  CLEAR     55  32  43 N3        30.10S
LAKE ELMO      FAIR      52  34  50 N6        30.11F
$$
MNZ001>005-007-008-013>017-022>024-027-028-020400-
   Northwest Minnesota

CITY           SKY/WX    TMP DP  RH WIND       PRES   REMARKS
BEMIDJI        CLEAR     44  29  55 CALM      30.13F
HALLOCK        PTCLDY    52  21  30 S5        30.12S
ROSEAU         CLEAR     50  34  53 E3        30.14S
WARROAD        CLEAR     45  34  65 CALM      30.15S
THIEF RVR FALL CLEAR     52  25  35 E6        30.15S
CROOKSTON      CLEAR     55  27  33 NE5       30.14S
FOSSTON        CLEAR     45  27  49 CALM      30.15R
DETROIT LAKES  CLEAR     54  32  43 NE3       30.14S
MOORHEAD       CLEAR     55  27  33 CALM      30.14S
PARK RAPIDS    CLEAR     48  30  49 N3        30.13R
MAHNOMEN       FAIR      52  29  41 E3        30.14R
$$
MNZ006-009>011-018-025>026-020400-
   North Central Minnesota

CITY           SKY/WX    TMP DP  RH WIND       PRES   REMARKS
BAUDETTE       CLEAR     44  28  53 CALM      30.14S
FLAG ISLAND    CLEAR     48  28  46 CALM      30.13S
INTL FALLS     CLEAR     37  31  78 CALM      30.13S
WASKISH        CLEAR     45  39  81 CALM      30.14S
BIG FORK       CLEAR     43  30  61 N3        30.14S
LONGVILLE      CLEAR     43  32  65 CALM      30.13S
GRAND RAPIDS   CLEAR     48  30  49 S7        30.14S
CRANE LAKE     CLEAR     36  32  87 CALM      30.16S
ORR            CLEAR     43  30  61 CALM      30.12S
COOK           CLEAR     43  32  65 E5        30.15R
WALKER         FAIR      52  29  40 CALM      30.13S
$$
MNZ012-019>021-037-020400-
   Northeast Minnesota

CITY           SKY/WX    TMP DP  RH WIND       PRES   REMARKS
DULUTH         CLEAR     42  30  62 E3        30.15S
ELY            CLEAR     46  30  53 CALM      30.15S
HIBBING        CLEAR     42  31  64 SE5       30.14R
EVELETH        CLEAR    N/A N/A N/A CALM      30.16S
DULUTH HARBOR  CLEAR     39  36  87 CALM      30.18F
TWO HARBORS    CLEAR     45  34  65 N5        30.15S
SILVER BAY     CLEAR     36  30  80 CALM      30.15F
GRAND MARAIS     N/A     37  32  82 CALM      30.17S
G MARAIS ARPRT CLEAR     37  28  70 CALM      30.16F
$$
MNZ029>031-032-039>041-046>048-054>057-064-020400-
   West Central Minnesota

CITY           SKY/WX    TMP DP  RH WIND       PRES   REMARKS
FERGUS FALLS   CLEAR     55  30  38 CALM      30.12R
WHEATON        CLEAR     54  34  47 CALM      30.16S
MORRIS         CLEAR     52  32  46 CALM      30.13S
ALEXANDRIA     CLEAR     51  31  46 CALM      30.14S
ELBOW LAKE     FAIR      55  31  40 CALM      30.14S
WADENA         CLEAR     48  32  53 CALM      30.13S
GLENWOOD       CLEAR     50  28  43 CALM      30.15R
APPLETON       CLEAR     48  32  53 CALM      30.14S
BENSON         CLEAR     45  28  53 CALM      30.14S
ORTONVILLE     CLEAR     52  34  50 N3        30.14S
MADISON        CLEAR     48  34  57 NE5       30.14S
WILLMAR        FAIR      54  32  43 CALM      30.15S
$$
MNZ033>034-036-042>043-049>051-058-059-020400-
   Central Minnesota

CITY           SKY/WX    TMP DP  RH WIND       PRES   REMARKS
ST CLOUD       CLEAR     47  33  58 NE3       30.13S
SAUK CENTRE    FAIR      47  32  55 CALM      30.14S
PAYNESVILLE    CLEAR     45  32  61 CALM      30.14S
AITKIN         CLEAR     48  28  46 CALM      30.12F
PINE RIVER     CLEAR     45  34  65 CALM      30.16S
BRAINERD       CLEAR     47  32  56 CALM      30.14R
STAPLES        CLEAR     46  34  61 CALM      30.13S
LONG PRAIRIE   FAIR      46  32  57 CALM      30.14S
LITTLE FALLS   CLEAR     43  34  70 CALM      30.14S
LITCHFIELD     CLEAR     52  36  54 CALM      30.14S
BUFFALO        CLEAR     52  33  49 N3        30.13S
MAPLE LAKE     CLEAR     48  38  69 CALM      30.14S
HUTCHINSON     PTCLDY    46  37  69 NW3       30.14S
$$
MNZ037-044-045-052-053-020400-
   East Central Minnesota

CITY           SKY/WX    TMP DP  RH WIND       PRES   REMARKS
PRINCETON      CLEAR     52  34  50 NE3       30.14S
MORA           CLEAR     45  32  61 CALM      30.16F
CAMBRIDGE      CLEAR     54  37  54 CALM      30.12S
RUSH CITY      PTCLDY    48  34  58 N5        30.14S
MOOSE LAKE     CLEAR     43  34  70 CALM      30.13F
HINCKLEY       FAIR      45  32  61 NE3       30.14S
CLOQUET        CLEAR     41  30  65 CALM      30.15F
MCGREGOR       CLEAR     48  32  53 CALM      30.14F
$$
MNZ071>073-080-081-089-090-097-098-020400-
   Southwest Minnesota

CITY           SKY/WX    TMP DP  RH WIND       PRES   REMARKS
MONTEVIDEO     CLEAR     48  30  49 CALM      30.15S
GRANITE FALLS  CLEAR     51  33  49 NE3       30.15S
CANBY          CLEAR     52  37  55 CALM      30.16R
MARSHALL       CLEAR     52  32  46 E3        30.14S
REDWOOD FALLS  CLEAR     54  31  41 CALM      30.13S
OLIVIA         CLEAR     50  32  50 NE3       30.13S
PIPESTONE      CLEAR     48  34  57 N3        30.14S
WINDOM         CLEAR     46  39  76 CALM      30.13S
WORTHINGTON    CLEAR     46  39  76 W3        30.15R
JACKSON        CLEAR     46  37  71 CALM      30.13S
TRACY          CLEAR     50  35  56 CALM      30.14S
SLAYTON        CLEAR     47  35  62 N5        30.15R
$$
MNZ065>067-074>077-082>085-091>093-020400-
   South Central Minnesota

CITY           SKY/WX    TMP DP  RH WIND       PRES   REMARKS
MANKATO        MOCLDY    52  36  54 N6        30.11S
NEW ULM        CLEAR     48  37  66 N3        30.13S
ST JAMES       CLEAR     43  36  75 NW7       30.13S
FAIRMONT       PTCLDY    48  37  66 N7        30.11S
GLENCOE        PTCLDY    52  39  61 NW3       30.12S
FARIBAULT      PTCLDY    54  37  54 NW3       30.10S
OWATONNA       MOCLDY    52  43  71 S7        30.11R
WASECA         CLOUDY    52  37  58 N7        30.11S
ALBERT LEA     CLOUDY    52  43  71 SW2       30.11R
$$
MNZ078>079-086>088-094>096-020400-
   Southeast Minnesota

CITY           SKY/WX    TMP DP  RH WIND       PRES   REMARKS
ROCHESTER      CLEAR     47  42  83 W8        30.10R
RED WING       CLEAR     52  37  58 N5        30.08S
STANTON        PTCLDY    52  36  55 CALM      30.08F
DODGE CENTER   MOCLDY    46  41  81 W5        30.10R
WINONA         PTCLDY    48  43  81 NW3       30.08F
AUSTIN         CLOUDY    48  41  76 CALM      30.09S
PRESTON        CLEAR     43  40  89 NW5       30.08S
$$
ABBREVIATIONS USED IN REMARKS
   TC - TEMPERATURES IN CELSIUS
  WCI - WIND CHILL INDEX
   HX - HEAT INDEX
  VSB - VISIBILITY
$$




USA.gov is the U.S. government's official web portal to all federal, state and local government web resources and services.